Location: D�derode
(51.8092°N, 10.1065°E)
Time: 21:01:56
(UTC+00:00)

Cosmos 389 Rocket - Pass Details

Date: 01 December 2020
Orbit: 442 x 473 km, 81.1° (Epoch: 25 January)

Event Time Altitude Azimuth Distance (km) Brightness Sun altitude
Rises 16:02:28 0° 181° (S) 2,428 6.5 -7.5°
Reaches altitude 10° 16:04:32 10° 177° (S) 1,561 5.5 -7.7°
Maximum altitude 16:07:53 56° 99° (E) 533 2.5 -8.2°
Drops below altitude 10° 16:11:15 10° 20° (NNE) 1,576 4.7 -8.7°
Enters shadow 16:12:36 - 17° (NNE) 2,139 5.4 -8.9°
